FENGYUN 1C DEB, 31436

Orbit data source: Space-Track

FENGYUN 1C DEB, 31436 is space debris in SSO originally from a launch on Mon, 10 May 1999 UTC launched from the Taiyaun Space Center, China (TSC). Fengyun 1C debris stems from the Chinese weather satellite Fengyun-1C, which was intentionally destroyed by a Chinese anti-satellite missile in 2007. This event dramatically increased the amount of space debris, with thousands of trackable fragments posing hazards to satellites and human spaceflight. The Fengyun 1C debris cloud has become a focal point in discussions about space sustainability and the need for international regulations to prevent the creation of new debris.

Loading next visibility...
Identifier
31436, 1999-025BTY
Orbit
SSO
Country
Flag of CNCN / PRC
Related business
Manufacturer
Unknown
Mission
Spacecraft
Bus & Motor
Unknown
Mass
Unknown
Launch date (UTC)
1999-05-10 (27 years ago)
Launch vehicle
Unknown
Launch site
Taiyaun Space Center, China (TSC)
Object type
Payload
Rocket body
Debris
Shape & HBR
Unknown shape, 0.1 m
Radar Cross Section
Medium (>0.1 m² and <1 m²)

Expand to show TLE details & history
Last TLE update: 1 day ago

TLE from 1 day ago
0 FENGYUN 1C DEB
1 31436U 99025BTY 26150.63002461  .00127889  00000-0  61223-2 0  9999
2 31436  98.8745  33.8083 0028056  50.8223 339.9318 15.18037162994176
Epoch: 2026-05-30T15:07Z
TLE epoch observation values (Epoch: 2026-05-30T15:07:14.126Z)
Latitude
30.29385°
Longitude
-86.3486°
Altitude
497.51 km
Speed
7.629 km/s
True Right ascension
01h 54m 24s
True Declination
30° 08' 19"
Sunlit
Object was in daylight at epoch
Visualization orbit readout
Latitude
Unknown
Longitude
Unknown
Altitude
Unknown
Speed
Unknown
Apparent Right ascension
Unknown
Apparent Declination
Unknown
Sunlit
N/A
Visualization observer readout
Local Sidereal Time
00:26:25
Azimuth
Unknown
Elevation
Unknown
Doppler factor
Unknown
Orbital elements
Apogee altitude
528.133 km
Perigee altitude
489.489 km
Semi-major axis
6,886.948 km
Eccentricity
0.00281
Inclination
98.8745°
RAAN
33.8083°
Arg. of periapsis
50.8223°
True anomaly
339.82112°
Mean anomaly
339.9318°
Eccentric anomaly
339.8765°
Mean motion
3.79755 °/min
Orbital period
94.8 mins
BSTAR
0.0061223
Loading maneuver chart data...
Computing Atmospheric mass density...
Loading historical data...
Loading historical data...
Loading historical data...
Loading historical data...
Loading historical data...
Loading historical data...
Loading historical data...

Documentation

Showing up to 5 results
|